Location: D�rnast
(49.6426°N, 11.9755°E)
Time: 08:23:00
(UTC+00:00)

N. Korean satellite - Pass Details

Date: 09 December 2021
Orbit: 446 x 491 km, 97.3° (Epoch: 18 January)

Event Time Altitude Azimuth Distance (km) Brightness Sun altitude
Rises 16:06:22 0° 189° (S) 2,510 10.7 -8.4°
Reaches altitude 10° 16:08:35 10° 200° (SSW) 1,628 9.9 -8.7°
Maximum altitude 16:11:43 31° 263° (W) 852 8.6 -9.2°
Drops below altitude 10° 16:14:50 10° 327° (NNW) 1,617 9.3 -9.7°
Sets 16:17:02 0° 339° (NNW) 2,489 10.2 -10.0°
